• In Belarus
  • List of Countries
  • For 7 days
  • Water Temperature
  • Satellite Maps
  • Weather Map
  • Weather Widgets
  • user-avatar
    Login

    Hourly Weather Niegoslawice

    Today, 22 October, Monday

    Time Temperature Precipitation Wind Pressure Humidity
    00:00 +7°C° 0 mm 1 mps 758 mmHg 81%
    01:00 +7°C° 0 mm 1 mps 758 mmHg 81%
    02:00 +7°C° 0 mm 1 mps 758 mmHg 82%
    03:00 +6°C° 0 mm 2 mps 758 mmHg 83%
    04:00 +5°C° 0 mm 2 mps 757 mmHg 84%
    05:00 +5°C° 0 mm 2 mps 757 mmHg 85%
    06:00 +5°C° 0 mm 2 mps 757 mmHg 86%
    07:00 +5°C° 0 mm 2 mps 757 mmHg 86%
    08:00 +7°C° 0 mm 2 mps 757 mmHg 77%
    09:00 +9°C° 0 mm 2 mps 757 mmHg 69%
    10:00 +11°C° 0 mm 3 mps 757 mmHg 60%
    11:00 +12°C° 0 mm 3 mps 757 mmHg 57%
    12:00 +13°C° 0 mm 3 mps 757 mmHg 54%
    13:00 +14°C° 0 mm 4 mps 756 mmHg 51%
    14:00 +13°C° 0.2 mm 4 mps 756 mmHg 60%
    15:00 +12°C° 0.2 mm 4 mps 756 mmHg 69%
    16:00 +11°C° 0.2 mm 4 mps 756 mmHg 78%
    17:00 +10°C° 0.2 mm 4 mps 756 mmHg 81%
    18:00 +10°C° 0.2 mm 4 mps 757 mmHg 83%
    19:00 +9°C° 0.2 mm 3 mps 757 mmHg 85%
    20:00 +8°C° 0 mm 3 mps 757 mmHg 86%
    21:00 +7°C° 0 mm 3 mps 758 mmHg 86%
    22:00 +7°C° 0 mm 2 mps 758 mmHg 87%
    23:00 +6°C° 0 mm 2 mps 758 mmHg 87%

    Tomorrow, 23 October, Tuesday

    Time Temperature Precipitation Wind Pressure Humidity
    00:00 +6°C° 0 mm 2 mps 758 mmHg 87%
    01:00 +6°C° 0 mm 2 mps 758 mmHg 86%
    02:00 +5°C° 0 mm 3 mps 757 mmHg 85%
    03:00 +5°C° 0 mm 3 mps 757 mmHg 84%
    04:00 +5°C° 0 mm 3 mps 756 mmHg 82%
    05:00 +5°C° 0 mm 4 mps 755 mmHg 81%
    06:00 +5°C° 0 mm 4 mps 755 mmHg 80%
    07:00 +5°C° 0 mm 5 mps 754 mmHg 80%
    08:00 +5°C° 0.2 mm 6 mps 753 mmHg 77%
    09:00 +5°C° 0.2 mm 7 mps 752 mmHg 74%
    10:00 +6°C° 0.2 mm 8 mps 751 mmHg 72%
    11:00 +6°C° 0.5 mm 9 mps 750 mmHg 73%
    12:00 +6°C° 0.5 mm 9 mps 749 mmHg 75%
    13:00 +6°C° 0.5 mm 10 mps 748 mmHg 77%
    14:00 +7°C° 0.2 mm 10 mps 747 mmHg 77%
    15:00 +7°C° 0.2 mm 10 mps 747 mmHg 78%
    16:00 +8°C° 0.2 mm 10 mps 746 mmHg 79%
    17:00 +8°C° 0.4 mm 10 mps 745 mmHg 80%
    18:00 +9°C° 0.4 mm 10 mps 745 mmHg 81%
    19:00 +9°C° 0.4 mm 10 mps 744 mmHg 82%
    20:00 +9°C° 0.8 mm 10 mps 744 mmHg 82%
    21:00 +11°C° 0.8 mm 10 mps 743 mmHg 82%
    22:00 +11°C° 0.8 mm 10 mps 743 mmHg 83%
    23:00 +11°C° 1 mm 10 mps 742 mmHg 82%

    Day after tomorrow, 24 October, Wednesday

    Time Temperature Precipitation Wind Pressure Humidity
    00:00 +11°C° 1 mm 10 mps 742 mmHg 82%
    01:00 +11°C° 1 mm 11 mps 741 mmHg 82%
    02:00 +11°C° 0.8 mm 11 mps 742 mmHg 79%
    03:00 +9°C° 0.8 mm 11 mps 742 mmHg 76%
    04:00 +9°C° 0.8 mm 11 mps 742 mmHg 73%
    05:00 +7°C° 0.1 mm 10 mps 743 mmHg 71%
    06:00 +6°C° 0.1 mm 9 mps 744 mmHg 69%
    07:00 +5°C° 0.1 mm 8 mps 744 mmHg 67%
    08:00 +6°C° 0 mm 8 mps 745 mmHg 64%
    09:00 +6°C° 0 mm 8 mps 746 mmHg 60%
    10:00 +7°C° 0 mm 9 mps 746 mmHg 56%
    11:00 +7°C° 0 mm 8 mps 747 mmHg 54%
    12:00 +7°C° 0 mm 8 mps 747 mmHg 52%
    13:00 +9°C° 0 mm 8 mps 748 mmHg 50%
    14:00 +8°C° 0 mm 7 mps 748 mmHg 51%
    15:00 +8°C° 0 mm 6 mps 748 mmHg 52%
    16:00 +8°C° 0 mm 5 mps 749 mmHg 53%
    17:00 +7°C° 0 mm 5 mps 749 mmHg 56%
    18:00 +7°C° 0 mm 4 mps 749 mmHg 59%
    19:00 +6°C° 0 mm 4 mps 750 mmHg 63%
    20:00 +6°C° 0 mm 4 mps 750 mmHg 65%
    21:00 +6°C° 0 mm 4 mps 750 mmHg 66%
    22:00 +7°C° 0 mm 3 mps 750 mmHg 68%
    23:00 +7°C° 0.1 mm 3 mps 749 mmHg 73%

    25 October, Thursday

    Time Temperature Precipitation Wind Pressure Humidity
    00:00 +7°C° 0.1 mm 3 mps 749 mmHg 78%
    01:00 +7°C° 0.1 mm 4 mps 749 mmHg 82%
    02:00 +8°C° 0.4 mm 4 mps 748 mmHg 85%
    03:00 +9°C° 0.4 mm 5 mps 747 mmHg 87%
    04:00 +10°C° 0.4 mm 6 mps 747 mmHg 90%
    05:00 +10°C° 0.1 mm 6 mps 747 mmHg 87%
    06:00 +10°C° 0.1 mm 7 mps 746 mmHg 85%
    07:00 +10°C° 0.1 mm 7 mps 746 mmHg 82%
    08:00 +10°C° 0.1 mm 8 mps 746 mmHg 82%
    09:00 +10°C° 0.1 mm 8 mps 746 mmHg 81%
    10:00 +10°C° 0.1 mm 8 mps 746 mmHg 80%
    11:00 +10°C° 0.1 mm 8 mps 746 mmHg 80%
    12:00 +10°C° 0.1 mm 8 mps 746 mmHg 79%
    13:00 +10°C° 0.1 mm 8 mps 746 mmHg 78%
    14:00 +10°C° 0.1 mm 7 mps 746 mmHg 78%
    15:00 +10°C° 0.1 mm 7 mps 746 mmHg 78%
    16:00 +10°C° 0.1 mm 6 mps 746 mmHg 77%
    17:00 +10°C° 0.1 mm 6 mps 746 mmHg 78%
    18:00 +9°C° 0.1 mm 5 mps 747 mmHg 78%
    19:00 +10°C° 0.1 mm 4 mps 747 mmHg 78%
    20:00 +10°C° 0.1 mm 4 mps 747 mmHg 78%
    21:00 +10°C° 0.1 mm 4 mps 747 mmHg 78%
    22:00 +10°C° 0.1 mm 4 mps 747 mmHg 78%
    23:00 +9°C° 0 mm 3 mps 747 mmHg 80%

    26 October, Friday

    Time Temperature Precipitation Wind Pressure Humidity
    00:00 +9°C° 0 mm 3 mps 747 mmHg 83%
    01:00 +8°C° 0 mm 3 mps 747 mmHg 85%
    02:00 +8°C° 0 mm 3 mps 747 mmHg 87%
    03:00 +8°C° 0 mm 3 mps 747 mmHg 90%
    04:00 +8°C° 0 mm 3 mps 746 mmHg 92%
    05:00 +8°C° 0 mm 2 mps 746 mmHg 93%
    06:00 +7°C° 0 mm 2 mps 746 mmHg 94%
    07:00 +7°C° 0 mm 2 mps 746 mmHg 95%
    08:00 +9°C° 0 mm 2 mps 746 mmHg 90%
    09:00 +10°C° 0 mm 3 mps 746 mmHg 84%
    10:00 +11°C° 0 mm 3 mps 745 mmHg 79%
    11:00 +12°C° 0 mm 3 mps 745 mmHg 72%
    12:00 +13°C° 0 mm 4 mps 744 mmHg 66%
    13:00 +14°C° 0 mm 4 mps 744 mmHg 60%
    14:00 +14°C° 0 mm 3 mps 743 mmHg 63%
    15:00 +13°C° 0 mm 3 mps 743 mmHg 65%
    16:00 +13°C° 0 mm 3 mps 742 mmHg 67%
    17:00 +12°C° 0 mm 3 mps 742 mmHg 70%
    18:00 +11°C° 0 mm 3 mps 741 mmHg 73%
    19:00 +10°C° 0 mm 3 mps 741 mmHg 76%
    20:00 +10°C° 0 mm 3 mps 741 mmHg 75%
    21:00 +10°C° 0 mm 3 mps 741 mmHg 74%
    22:00 +10°C° 0 mm 3 mps 741 mmHg 74%
    23:00 +10°C° 0 mm 3 mps 740 mmHg 76%

    27 October, Saturday

    Time Temperature Precipitation Wind Pressure Humidity
    00:00 +9°C° 0 mm 2 mps 740 mmHg 79%
    01:00 +9°C° 0 mm 2 mps 740 mmHg 81%
    02:00 +9°C° 0 mm 2 mps 740 mmHg 84%
    03:00 +8°C° 0 mm 2 mps 740 mmHg 87%
    04:00 +7°C° 0 mm 2 mps 740 mmHg 91%
    05:00 +7°C° 0 mm 2 mps 739 mmHg 91%
    06:00 +8°C° 0 mm 1 mps 739 mmHg 91%
    07:00 +8°C° 0 mm 1 mps 739 mmHg 91%
    08:00 +9°C° 0.1 mm 1 mps 739 mmHg 88%
    09:00 +10°C° 0.1 mm 1 mps 739 mmHg 85%
    10:00 +9°C° 0.1 mm 0 mps 739 mmHg 82%
    11:00 +10°C° 0.6 mm 1 mps 738 mmHg 84%
    12:00 +10°C° 0.6 mm 1 mps 738 mmHg 86%
    13:00 +10°C° 0.6 mm 1 mps 738 mmHg 87%
    14:00 +8°C° 1.1 mm 2 mps 738 mmHg 89%
    15:00 +8°C° 1.1 mm 2 mps 737 mmHg 90%
    16:00 +8°C° 1.1 mm 2 mps 737 mmHg 92%
    17:00 +7°C° 0.5 mm 2 mps 737 mmHg 92%
    18:00 +7°C° 0.5 mm 2 mps 737 mmHg 93%
    19:00 +7°C° 0.5 mm 2 mps 737 mmHg 93%
    20:00 +7°C° 0.6 mm 2 mps 737 mmHg 93%
    21:00 +7°C° 0.6 mm 3 mps 737 mmHg 93%
    22:00 +5°C° 0.6 mm 3 mps 737 mmHg 92%
    23:00 +5°C° 0.6 mm 3 mps 737 mmHg 92%

    28 October, Sunday

    Time Temperature Precipitation Wind Pressure Humidity
    00:00 +5°C° 0.6 mm 3 mps 737 mmHg 92%
    01:00 +5°C° 0.6 mm 3 mps 737 mmHg 92%
    02:00 +5°C° 0.5 mm 3 mps 737 mmHg 92%
    03:00 +5°C° 0.5 mm 3 mps 738 mmHg 91%
    04:00 +4°C° 0.5 mm 3 mps 738 mmHg 91%
    05:00 +5°C° 0.5 mm 2 mps 739 mmHg 91%
    06:00 +5°C° 0.5 mm 2 mps 739 mmHg 91%
    07:00 +5°C° 0.5 mm 2 mps 740 mmHg 92%
    08:00 +6°C° 0.2 mm 2 mps 741 mmHg 88%
    09:00 +6°C° 0.2 mm 2 mps 741 mmHg 85%
    10:00 +7°C° 0.2 mm 2 mps 742 mmHg 81%
    11:00 +7°C° 0 mm 2 mps 743 mmHg 76%
    12:00 +8°C° 0 mm 2 mps 743 mmHg 70%
    13:00 +9°C° 0 mm 2 mps 743 mmHg 65%
    14:00 +8°C° 0 mm 2 mps 744 mmHg 67%
    15:00 +9°C° 0 mm 1 mps 744 mmHg 69%
    16:00 +9°C° 0 mm 1 mps 744 mmHg 71%
    17:00 +8°C° 0 mm 1 mps 745 mmHg 74%
    18:00 +6°C° 0 mm 2 mps 745 mmHg 77%
    19:00 +5°C° 0 mm 2 mps 746 mmHg 81%
    20:00 +5°C° 0 mm 2 mps 746 mmHg 82%
    21:00 +5°C° 0 mm 2 mps 746 mmHg 83%
    22:00 +4°C° 0 mm 2 mps 747 mmHg 85%
    23:00 +4°C° 0 mm 2 mps 747 mmHg 85%
    Show more